Flag for U.S.A. Weather past 2 weeks in Midway, Midway Atoll, U.S.A.

Now
76 °F

Passing clouds.


Feels Like: 77 °F
Forecast: 75 / 82 °F
Wind: 6 mph from Northwest

Location: Midway Island Naval Air Facility

Current Time: Oct 25, 2014 at 6:06:36 AM

Latest Report: Oct 25, 2014 at 4:56 AM


Visibility: 10 mi

Pressure: 30.86 "Hg

Humidity: 77%

Dew point: 68 °F

Location of MidwayLocation

Historic Weather in Midway — Graph

°F

Midway temperature yesterday

Maximum temperature yesterday: 86 °F (at 10:56 AM)
Minimum temperature yesterday: 75 °F (at 5:35 AM)
Average temperature yesterday: 80 °F

Past Weeks' High & Low Weather Summary

 TemperatureHumidityPressure
High90 °F (Oct 14, 10:25 AM)100% (Oct 19, 6:17 AM)31.00 "Hg (Oct 19, 6:17 AM)
Low73 °F (Oct 20, 5:56 AM)56% (Oct 16, 12:56 PM)28.05 "Hg (Oct 11, 12:56 AM)
Average80 °F81%30.18 "Hg
* Reported Oct 10 4:56 AM — Oct 25 4:56 AM, Midway, Weather by CustomWeather, © 2014

Note: Actual official high and low records may vary slightly from our data, if they occured in-between our weather recording intervals... More about our weather records

Advertising

Midway weather history for previous 24 hours

 ConditionsComfort  
Time TempWeatherWind HumidityBarometerVisibility
4:56 AM
Oct 25
76 °FPassing clouds.6 mph77%30.86 "Hg10 mi
3:56 AM76 °FPassing clouds.9 mph79%30.85 "Hg10 mi
3:18 AM75 °FPassing clouds.8 mph83%29.96 "Hg10 mi
2:56 AM76 °FPassing clouds.6 mph82%30.86 "Hg10 mi
1:56 AM77 °FClear.8 mph79%30.87 "Hg10 mi
12:56 AM77 °FPassing clouds.7 mph79%30.87 "Hg10 mi
11:56 PM
Oct 24
77 °FPassing clouds.5 mph76%30.89 "Hg10 mi
10:56 PM77 °FClear.3 mph79%30.89 "Hg10 mi
9:56 PM78 °FPassing clouds.7 mph77%30.89 "Hg10 mi
8:56 PM78 °FClear.7 mph79%30.89 "Hg10 mi
7:56 PM78 °FClear.No wind77%30.88 "Hg10 mi
6:56 PM78 °FPassing clouds.6 mph79%30.86 "Hg10 mi
5:56 PM79 °FPassing clouds.7 mph79%30.85 "Hg10 mi
4:56 PM82 °FScattered clouds.8 mph69%30.83 "Hg10 mi
3:56 PM83 °FPassing clouds.7 mph70%30.81 "Hg10 mi
2:56 PM85 °FSunny.8 mph65%30.81 "Hg10 mi
1:56 PM85 °FSunny.7 mph65%30.81 "Hg10 mi
12:56 PM85 °FSunny.8 mph65%30.83 "Hg10 mi
11:56 AM85 °FSunny.8 mph70%30.85 "Hg10 mi
10:56 AM86 °FSunny.8 mph69%30.86 "Hg10 mi
9:56 AM83 °FPartly sunny.6 mph74%30.87 "Hg10 mi
8:56 AM82 °FPassing clouds.5 mph79%30.85 "Hg10 mi
7:56 AM78 °FBroken clouds.6 mph90%30.84 "Hg10 mi
6:56 AM77 °FMostly cloudy.No wind90%30.83 "Hg10 mi
Weather by CustomWeather, © 2014

See weather overviewHow to use our weather pages